| time (UTC) | temp F | wind direction | speed MPH | gust MPH | rain 1hr in | rain 24hr in | rain mn in | humidity % | barometer mb |
| 20260506091015 | 54 | 0.0 | 0.0 | 0.00 | 0.00 | 0.00 | 92 | 1019.0 | |
| 20260506090036 | 54 | 0.0 | 1.0 | 0.00 | 0.00 | 0.00 | 92 | 1018.9 | |
| 20260506085036 | 54 | 0.0 | 0.0 | 0.00 | 0.00 | 0.00 | 92 | 1018.9 | |
| 20260506084015 | 54 | 0.0 | 0.0 | 0.00 | 0.00 | 0.00 | 92 | 1019.0 | |
| 20260506083017 | 54 | 0.0 | 0.0 | 0.00 | 0.00 | 0.00 | 92 | 1019.0 | |
| 20260506082116 | 54 | 0.0 | 0.0 | 0.00 | 0.00 | 0.00 | 91 | 1019.0 | |
| 20260506081015 | 54 | 0.0 | 0.0 | 0.00 | 0.00 | 0.00 | 91 | 1018.9 | |
| 20260506073015 | 55 | 0.0 | 0.0 | 0.00 | 0.01 | 0.00 | 90 | 1018.7 | |
| 20260506072016 | 55 | 0.0 | 1.0 | 0.00 | 0.02 | 0.00 | 90 | 1018.7 | |
| 20260506071015 | 55 | 0.0 | 1.0 | 0.00 | 0.03 | 0.00 | 89 | 1018.6 | |
| 20260506062017 | 56 | 0.0 | 2.0 | 0.00 | 0.05 | 0.04 | 88 | 1018.1 | |
| 20260506061017 | 56 | 225 | 1.0 | 3.0 | 0.00 | 0.07 | 0.04 | 88 | 1018.1 |
| 20260506051017 | 57 | 0.0 | 0.0 | 0.00 | 0.15 | 0.04 | 87 | 1017.3 | |
| 20260506045017 | 57 | 0.0 | 0.0 | 0.00 | 0.16 | 0.04 | 87 | 1017.3 | |
| 20260506044017 | 57 | 0.0 | 0.0 | 0.00 | 0.16 | 0.04 | 86 | 1017.2 | |
| 20260506043017 | 57 | 0.0 | 1.0 | 0.00 | 0.16 | 0.04 | 87 | 1017.1 | |
| 20260506042017 | 57 | 0.0 | 0.0 | 0.00 | 0.17 | 0.04 | 86 | 1016.9 | |
| 20260506041017 | 57 | 0.0 | 0.0 | 0.00 | 0.18 | 0.04 | 86 | 1016.7 | |
| 20260506040017 | 57 | 0.0 | 1.0 | 0.00 | 0.20 | 0.04 | 86 | 1016.6 | |
| 20260506035017 | 57 | 0.0 | 0.0 | 0.00 | 0.22 | 0.04 | 86 | 1016.7 | |
| 20260506034017 | 57 | 0.0 | 0.0 | 0.00 | 0.25 | 0.04 | 86 | 1016.7 | |
| 20260506033017 | 57 | 0.0 | 2.0 | 0.00 | 0.27 | 0.04 | 86 | 1016.5 | |
| 20260506032016 | 57 | 0.0 | 1.0 | 0.00 | 0.29 | 0.04 | 86 | 1016.4 | |
| 20260506031017 | 57 | 0.0 | 0.0 | 0.00 | 0.32 | 0.04 | 86 | 1016.2 | |
| 20260506030017 | 58 | 0.0 | 1.0 | 0.00 | 0.35 | 0.04 | 86 | 1016.0 | |
| 20260506025017 | 58 | 0.0 | 0.0 | 0.00 | 0.38 | 0.04 | 85 | 1016.0 | |
| 20260506024016 | 58 | 0.0 | 1.0 | 0.00 | 0.41 | 0.04 | 84 | 1015.9 | |
| 20260506023037 | 58 | 0.0 | 1.0 | 0.00 | 0.43 | 0.04 | 84 | 1015.8 | |
| 20260506022017 | 58 | 0.0 | 2.0 | 0.00 | 0.44 | 0.04 | 83 | 1015.8 | |
| 20260506021017 | 59 | 0.0 | 2.0 | 0.00 | 0.45 | 0.04 | 83 | 1015.5 | |
| 20260506020017 | 59 | 0.0 | 3.0 | 0.00 | 0.46 | 0.04 | 82 | 1015.6 | |
| 20260506015017 | 59 | 0.0 | 2.0 | 0.00 | 0.47 | 0.04 | 82 | 1015.6 | |
| 20260506014017 | 59 | 0.0 | 1.0 | 0.00 | 0.49 | 0.04 | 83 | 1015.7 | |
| 20260506013017 | 59 | 0.0 | 1.0 | 0.00 | 0.50 | 0.04 | 82 | 1015.7 | |
| 20260506012017 | 59 | 0.0 | 1.0 | 0.00 | 0.53 | 0.04 | 83 | 1015.6 | |
| 20260506011017 | 59 | 0.0 | 2.0 | 0.00 | 0.54 | 0.04 | 81 | 1015.6 | |
| 20260506010016 | 60 | 0.0 | 2.0 | 0.00 | 0.55 | 0.04 | 82 | 1015.6 | |
| 20260506005017 | 60 | 0.0 | 2.0 | 0.00 | 0.56 | 0.04 | 81 | 1015.5 | |
| 20260506004016 | 60 | 0.0 | 2.0 | 0.00 | 0.58 | 0.04 | 82 | 1015.4 | |
| 20260506003017 | 59 | 0.0 | 1.0 | 0.00 | 0.59 | 0.04 | 82 | 1015.4 | |
| 20260506002017 | 59 | 0.0 | 1.0 | 0.00 | 0.60 | 0.04 | 81 | 1015.5 | |
| 20260506001036 | 59 | 0.0 | 0.0 | 0.00 | 0.61 | 0.04 | 82 | 1015.4 | |
| 20260506000017 | 59 | 0.0 | 1.0 | 0.00 | 0.62 | 0.04 | 81 | 1015.4 | |
| 20260505235016 | 59 | 0.0 | 0.0 | 0.00 | 0.64 | 0.04 | 81 | 1015.4 | |
| 20260505234016 | 59 | 0.0 | 1.0 | 0.00 | 0.67 | 0.04 | 81 | 1015.3 | |
| 20260505233016 | 59 | 0.0 | 0.0 | 0.00 | 0.69 | 0.04 | 81 | 1015.4 | |
| 20260505232017 | 59 | 0.0 | 1.0 | 0.00 | 0.72 | 0.04 | 80 | 1015.3 | |
| 20260505231016 | 59 | 0.0 | 0.0 | 0.00 | 0.74 | 0.04 | 81 | 1015.4 | |
| 20260505230016 | 59 | 0.0 | 0.0 | 0.00 | 0.77 | 0.04 | 82 | 1015.4 | |
| 20260505225017 | 59 | 248 | 1.0 | 3.0 | 0.00 | 0.79 | 0.04 | 80 | 1015.3 |
| 20260505224017 | 59 | 225 | 1.0 | 4.0 | 0.00 | 0.80 | 0.04 | 81 | 1015.4 |
| 20260505223036 | 60 | 248 | 1.0 | 4.0 | 0.00 | 0.80 | 0.04 | 80 | 1015.5 |
| 20260505222016 | 60 | 0.0 | 1.0 | 0.00 | 0.81 | 0.04 | 81 | 1015.6 | |
| 20260505221017 | 60 | 248 | 1.0 | 5.0 | 0.00 | 0.81 | 0.04 | 80 | 1015.6 |
| 20260505220036 | 60 | 225 | 1.0 | 3.0 | 0.00 | 0.82 | 0.04 | 79 | 1015.6 |
| 20260505215017 | 60 | 225 | 1.0 | 4.0 | 0.00 | 0.83 | 0.04 | 77 | 1015.7 |
| 20260505214037 | 61 | 0.0 | 1.0 | 0.00 | 0.84 | 0.04 | 79 | 1015.9 | |
| 20260505213016 | 61 | 0.0 | 3.0 | 0.00 | 0.85 | 0.04 | 80 | 1015.8 | |
| 20260505212016 | 61 | 0.0 | 2.0 | 0.00 | 0.86 | 0.04 | 79 | 1015.8 | |
| 20260505211016 | 60 | 225 | 1.0 | 5.0 | 0.00 | 0.86 | 0.04 | 79 | 1015.9 |
| 20260505210016 | 59 | 225 | 1.0 | 3.0 | 0.00 | 0.86 | 0.04 | 81 | 1015.7 |
| 20260505205016 | 59 | 225 | 1.0 | 4.0 | 0.00 | 0.87 | 0.04 | 82 | 1015.7 |
| 20260505204016 | 59 | 180 | 1.0 | 3.0 | 0.00 | 0.87 | 0.04 | 83 | 1015.8 |
| 20260505203016 | 58 | 225 | 1.0 | 5.0 | 0.00 | 0.87 | 0.04 | 83 | 1015.7 |
| 20260505202016 | 58 | 225 | 1.0 | 5.0 | 0.00 | 0.87 | 0.04 | 83 | 1015.7 |
| 20260505201037 | 57 | 225 | 1.0 | 4.0 | 0.00 | 0.87 | 0.04 | 85 | 1015.7 |
| 20260505200017 | 57 | 0.0 | 2.0 | 0.00 | 0.87 | 0.04 | 86 | 1015.8 | |
| 20260505195036 | 56 | 248 | 1.0 | 3.0 | 0.00 | 0.87 | 0.04 | 85 | 1015.9 |
| 20260505194016 | 56 | 248 | 1.0 | 2.0 | 0.00 | 0.87 | 0.04 | 86 | 1015.9 |
| 20260505193016 | 56 | 225 | 1.0 | 3.0 | 0.00 | 0.88 | 0.04 | 85 | 1015.9 |
| 20260505192016 | 56 | 225 | 1.0 | 4.0 | 0.00 | 0.89 | 0.04 | 85 | 1015.8 |
| 20260505191016 | 57 | 225 | 1.0 | 3.0 | 0.00 | 0.90 | 0.04 | 85 | 1015.8 |
| 20260505190016 | 57 | 0.0 | 2.0 | 0.00 | 0.91 | 0.04 | 87 | 1015.9 | |
| 20260505185016 | 56 | 0.0 | 1.0 | 0.00 | 0.91 | 0.04 | 87 | 1015.8 | |
| 20260505184021 | 56 | 225 | 1.0 | 3.0 | 0.00 | 0.92 | 0.04 | 88 | 1015.7 |
| 20260505183016 | 56 | 225 | 1.0 | 4.0 | 0.00 | 0.92 | 0.04 | 88 | 1015.6 |
| 20260505182016 | 56 | 225 | 1.0 | 6.0 | 0.00 | 0.92 | 0.04 | 87 | 1015.6 |
| 20260505181036 | 57 | 225 | 1.0 | 4.0 | 0.00 | 0.92 | 0.04 | 89 | 1015.6 |
| 20260505180016 | 57 | 0.0 | 2.0 | 0.00 | 0.92 | 0.04 | 89 | 1015.5 | |
| 20260505175016 | 56 | 0.0 | 1.0 | 0.00 | 0.92 | 0.04 | 93 | 1015.4 | |
| 20260505174016 | 55 | 0.0 | 2.0 | 0.00 | 0.92 | 0.04 | 95 | 1015.2 | |
| 20260505173016 | 55 | 0.0 | 1.0 | 0.00 | 0.92 | 0.04 | 97 | 1015.1 | |
| 20260505172016 | 54 | 0.0 | 1.0 | 0.00 | 0.92 | 0.04 | 97 | 1015.2 | |
| 20260505171016 | 53 | 0.0 | 3.0 | 0.00 | 0.92 | 0.04 | 96 | 1015.2 | |
| 20260505170016 | 52 | 0.0 | 1.0 | 0.00 | 0.94 | 0.04 | 96 | 1015.2 | |
| 20260505165016 | 52 | 0.0 | 1.0 | 0.00 | 0.96 | 0.04 | 97 | 1015.2 | |
| 20260505164016 | 52 | 0.0 | 2.0 | 0.00 | 0.96 | 0.04 | 96 | 1015.2 | |
| 20260505163016 | 52 | 0.0 | 2.0 | 0.00 | 0.96 | 0.04 | 96 | 1015.1 | |
| 20260505162016 | 52 | 0.0 | 2.0 | 0.00 | 0.96 | 0.04 | 97 | 1015.1 | |
| 20260505161016 | 51 | 0.0 | 1.0 | 0.00 | 0.96 | 0.04 | 97 | 1015.0 | |
| 20260505153016 | 50 | 158 | 1.0 | 4.0 | 0.00 | 0.96 | 0.04 | 97 | 1014.8 |
| 20260505152016 | 50 | 0.0 | 2.0 | 0.00 | 0.96 | 0.04 | 97 | 1014.7 | |
| 20260505151016 | 50 | 0.0 | 2.0 | 0.00 | 0.96 | 0.04 | 97 | 1014.8 | |
| 20260505125016 | 49 | 0.0 | 1.0 | 0.00 | 0.96 | 0.04 | 96 | 1013.9 | |
| 20260505124036 | 49 | 0.0 | 0.0 | 0.00 | 0.96 | 0.04 | 97 | 1013.8 | |
| 20260505123016 | 50 | 0.0 | 1.0 | 0.00 | 0.96 | 0.04 | 97 | 1013.8 | |
| 20260505122036 | 50 | 0.0 | 1.0 | 0.00 | 0.96 | 0.04 | 96 | 1013.8 | |
| 20260505121016 | 50 | 0.0 | 0.0 | 0.00 | 0.96 | 0.04 | 97 | 1013.8 | |
| 20260505120016 | 50 | 0.0 | 0.0 | 0.00 | 0.96 | 0.04 | 96 | 1013.7 | |
| 20260505115016 | 50 | 0.0 | 1.0 | 0.00 | 0.96 | 0.04 | 96 | 1013.9 | |
| 20260505114036 | 50 | 0.0 | 1.0 | 0.00 | 0.96 | 0.04 | 97 | 1013.9 | |
| 20260505113016 | 50 | 0.0 | 0.0 | 0.00 | 0.96 | 0.04 | 97 | 1013.9 | |
| 20260505112015 | 50 | 0.0 | 0.0 | 0.00 | 0.96 | 0.04 | 96 | 1013.9 | |
| 20260505111016 | 50 | 0.0 | 2.0 | 0.00 | 0.96 | 0.04 | 96 | 1014.0 | |
| 20260505102016 | 50 | 0.0 | 1.0 | 0.00 | 0.96 | 0.04 | 96 | 1014.1 | |
| 20260505101056 | 50 | 0.0 | 2.0 | 0.00 | 0.96 | 0.04 | 96 | 1013.8 | |
| 20260505100016 | 50 | 0.0 | 1.0 | 0.00 | 0.96 | 0.04 | 96 | 1014.1 | |
| 20260505095015 | 50 | 0.0 | 0.0 | 0.00 | 0.96 | 0.04 | 96 | 1014.1 | |
| 20260505094016 | 50 | 0.0 | 1.0 | 0.00 | 0.96 | 0.04 | 96 | 1014.0 | |
| 20260505093016 | 50 | 0.0 | 1.0 | 0.00 | 0.96 | 0.04 | 96 | 1014.4 | |
| 20260505092015 | 50 | 0.0 | 1.0 | 0.00 | 0.96 | 0.04 | 96 | 1014.4 |